Greenville, AL

11:15 AM CST on February 26, 2017 (GMT -0600)
Greenville Municipal

Weather History for KPRN - August, 2014

Change the Weather History Date:

Sunday, August 17, 2014

  Actual Average Record
Temperature  
Mean Temperature 80 °F -  
Max Temperature 89 °F 91 °F 101 °F (1954)
Min Temperature 72 °F 69 °F 62 °F (1929)
Cooling Degree Days 16    
Growing Degree Days 30 (Base 50)    
Moisture  
Dew Point 73 °F    
Average Humidity 82    
Maximum Humidity 93    
Minimum Humidity 62    
Precipitation  
Precipitation 0.32 in - - ()
Sea Level Pressure  
Sea Level Pressure 30.03 in    
Wind  
Wind Speed 4 mph (WSW)    
Max Wind Speed 13 mph    
Max Gust Speed 24 mph    
Visibility 8 miles    
Events Fog , Rain , Thunderstorm    
Averages and records for this station are not official NWS values.
T = Trace of Precipitation, MM = Missing Value Source: NWS Daily Summary

Daily Weather History Graph

Daily Weather History Graph

Search for Another Location

Airport or City:

Trip Planner

Search our weather history database for the weather conditions in past years. The results will help you decide how hot, cold, wet, or windy it might be!

Date:

Astronomy

Aug. 17, 2014 Rise Set
Actual Time 6:12 AM CDT 7:27 PM CDT
Civil Twilight 5:46 AM CDT 7:53 PM CDT
Nautical Twilight 5:16 AM CDT 8:23 PM CDT
Astronomical Twilight 4:44 AM CDT 8:55 PM CDT
Moon No Moon Rise 1:29 PM CDT (8/17)
Length of Visible Light 14h 06m
Length of Day
13h 15m
Waning Gibbous, 48% of the Moon is Illuminated
Aug 17
Waning Gibbous
Aug 25
New
Sep 2
First Quarter
Sep 8
Full
Sep 15
Last Quarter

Hourly Weather History & Observations

Time (CDT) Temp. Heat Index Dew Point Humidity Pressure Visibility Wind Dir Wind Speed Gust Speed Precip Events Conditions
12:56 AM 73.9 °F - 70.0 °F 87% 30.02 in 7.0 mi Calm Calm - N/A   Clear
1:56 AM 73.9 °F - 70.0 °F 87% 30.01 in 8.0 mi South 3.5 mph - N/A   Clear
2:56 AM 73.0 °F - 70.0 °F 90% 30.00 in 6.0 mi Calm Calm - N/A   Clear
3:56 AM 72.0 °F - 69.1 °F 91% 30.01 in 5.0 mi SSW 3.5 mph - N/A   Clear
4:56 AM 73.0 °F - 70.0 °F 90% 30.01 in 6.0 mi SSW 3.5 mph - N/A   Clear
5:56 AM 73.0 °F - 71.1 °F 93% 30.02 in 5.0 mi SSW 3.5 mph - N/A   Clear
6:56 AM 73.9 °F - 72.0 °F 93% 30.04 in 5.0 mi SW 4.6 mph - N/A   Clear
8:08 AM 77.0 °F - 73.4 °F 89% 30.07 in 8.0 mi Variable 4.6 mph - N/A   Mostly Cloudy
8:35 AM 80.6 °F 86.2 °F 75.2 °F 84% 30.07 in 10.0 mi West 9.2 mph - N/A   Scattered Clouds
8:56 AM 82.9 °F 90.2 °F 75.0 °F 77% 30.06 in 10.0 mi West 6.9 mph - N/A   Partly Cloudy
9:32 AM 84.2 °F 92.3 °F 75.2 °F 74% 30.07 in 10.0 mi West 11.5 mph - N/A   Mostly Cloudy
9:43 AM 84.2 °F 92.3 °F 75.2 °F 74% 30.07 in 10.0 mi West 9.2 mph - N/A   Mostly Cloudy
9:56 AM 84.9 °F 93.3 °F 75.0 °F 72% 30.05 in 10.0 mi WSW 6.9 mph - N/A   Scattered Clouds
10:34 AM 86.0 °F 93.4 °F 73.4 °F 66% 30.05 in 10.0 mi WNW 8.1 mph - N/A   Mostly Cloudy
10:44 AM 82.4 °F 88.2 °F 73.4 °F 74% 30.05 in 2.5 mi West 8.1 mph - 0.03 in Rain Rain
10:53 AM 82.4 °F 89.5 °F 75.2 °F 79% 30.05 in 3.0 mi West 8.1 mph - 0.04 in Rain Light Rain
10:54 AM 82.0 °F 89.4 °F 75.9 °F 82% 30.03 in 5.0 mi West 6.9 mph - 0.04 in Rain Light Rain
11:27 AM 84.2 °F 92.3 °F 75.2 °F 74% 30.05 in 10.0 mi SW 6.9 mph - 0.00 in Thunderstorm Mostly Cloudy
11:47 AM 77.0 °F - 71.6 °F 83% 30.06 in 1.5 mi WSW 12.7 mph - 0.12 in Rain , Thunderstorm Heavy Thunderstorms and Rain
11:56 AM 75.9 °F - 72.0 °F 87% 30.03 in 0.5 mi WSW 3.5 mph 24.2 mph 0.26 in Fog , Rain , Thunderstorm Heavy Thunderstorms and Rain
11:59 AM 77.0 °F - 71.6 °F 83% 30.05 in 1.0 mi SSW 4.6 mph - 0.00 in Rain , Thunderstorm Light Thunderstorms and Rain
12:03 PM 77.0 °F - 73.4 °F 89% 30.04 in 4.0 mi Calm Calm - 0.01 in Rain , Thunderstorm Light Thunderstorms and Rain
12:25 PM 80.6 °F 87.1 °F 77.0 °F 89% 30.04 in 9.0 mi Calm Calm - 0.01 in   Scattered Clouds
12:56 PM 82.0 °F 89.4 °F 75.9 °F 82% 30.02 in 10.0 mi SSW 5.8 mph - 0.01 in   Clear
1:56 PM 84.9 °F 94.1 °F 75.9 °F 74% 30.01 in 10.0 mi Variable 3.5 mph - N/A   Clear
2:34 PM 89.6 °F 99.8 °F 75.2 °F 62% 30.02 in 10.0 mi SW 11.5 mph - 0.00 in Thunderstorm Partly Cloudy
2:56 PM 78.1 °F - 72.0 °F 81% 30.01 in 4.0 mi WSW 8.1 mph - 0.01 in Rain , Thunderstorm Thunderstorms and Rain
3:56 PM 78.1 °F - 72.0 °F 81% 30.01 in 10.0 mi SSW 4.6 mph - 0.00 in Thunderstorm Thunderstorm
4:43 PM 80.6 °F 85.4 °F 73.4 °F 79% 30.01 in 10.0 mi Calm Calm - N/A   Partly Cloudy
4:56 PM 81.0 °F 86.2 °F 73.9 °F 79% 30.00 in 10.0 mi Calm Calm - N/A   Partly Cloudy
5:56 PM 82.9 °F 90.2 °F 75.0 °F 77% 29.98 in 10.0 mi Variable 3.5 mph - N/A   Clear
6:56 PM 80.1 °F 83.6 °F 71.1 °F 74% 29.97 in 10.0 mi SSW 6.9 mph - N/A   Clear
7:56 PM 77.0 °F - 70.0 °F 79% 29.99 in 10.0 mi WSW 8.1 mph - N/A   Clear
8:56 PM 75.9 °F - 70.0 °F 82% 30.01 in 10.0 mi WSW 5.8 mph - N/A   Clear
9:56 PM 73.9 °F - 70.0 °F 87% 30.01 in 10.0 mi Calm Calm - N/A   Clear
10:56 PM 73.9 °F - 71.1 °F 91% 30.01 in 10.0 mi SW 3.5 mph - N/A   Clear
11:56 PM 73.9 °F - 71.1 °F 91% 30.00 in 9.0 mi SW 6.9 mph - N/A   Clear